Weather History for Pleasanton, TX

Change the Weather History Date:

Wednesday, April 24, 2013

  Actual Average Record
Temperature  
Mean Temperature 56 °F -  
Max Temperature 64 °F 85 °F 90 °F (2011)
Min Temperature 48 °F 56 °F 48 °F (2013)
Degree Days  
Heating Degree Days 9    
Growing Degree Days 6 (Base 50)    
Moisture  
Dew Point 39 °F    
Average Humidity 54    
Maximum Humidity 84    
Minimum Humidity 35    
Precipitation  
Precipitation 0.02 in - - ()
Sea Level Pressure  
Sea Level Pressure 30.17 in    
Wind  
Wind Speed 12 mph (NNE)    
Max Wind Speed 17 mph    
Max Gust Speed 29 mph    
Visibility 8 miles    
Events Rain , Thunderstorm    
Averages and records for this station are not official NWS values.
T = Trace of Precipitation, MM = Missing Value Source: NWS Daily Summary

Daily Weather History Graph

Daily Weather History Graph

Search for Another Location

Airport:

Trip Planner

Search our weather history database for the weather conditions in past years. The results will help you decide how hot, cold, wet, or windy it might be!

Date:

Astronomy

Apr. 24, 2013 Rise Set
Actual Time 6:58 AM CDT 8:05 PM CDT
Civil Twilight 6:34 AM CDT 8:30 PM CDT
Nautical Twilight 6:04 AM CDT 8:59 PM CDT
Astronomical Twilight 5:34 AM CDT 9:30 PM CDT
Moon 7:13 PM CDT (4/24) 5:58 AM CDT (4/24)
Length of Visible Light 13h 56m
Length of Day
13h 06m
Waxing Gibbous, 98% of the Moon is Illuminated
Apr 24
Waxing Gibbous
Apr 25
Full
May 2
Last Quarter
May 9
New
May 17
First Quarter

Hourly Weather History & Observations

Time (CDT) Temp. Dew Point Humidity Pressure Visibility Wind Dir Wind Speed Gust Speed Precip Events Conditions
12:15 AM 59.9 °F 46.8 °F 62% 30.03 in 7.0 mi NNE 17.3 mph 20.7 mph N/A   Overcast
12:35 AM 59.4 °F 46.8 °F 63% 30.04 in 10.0 mi NNE 13.8 mph 20.7 mph N/A   Overcast
12:55 AM 59.0 °F 46.4 °F 63% 30.04 in 10.0 mi NNE 17.3 mph 24.2 mph N/A   Overcast
1:15 AM 58.5 °F 45.7 °F 62% 30.06 in 10.0 mi NNE 12.7 mph 23.0 mph N/A   Overcast
1:35 AM 57.4 °F 45.5 °F 65% 30.06 in 10.0 mi North 16.1 mph 23.0 mph N/A Rain Light Rain
1:55 AM 56.3 °F 44.6 °F 65% 30.06 in 10.0 mi NNE 13.8 mph 25.3 mph N/A Rain Rain
2:35 AM 54.5 °F 43.3 °F 66% 30.07 in 10.0 mi NNE 17.3 mph 28.8 mph N/A Rain Heavy Rain
2:55 AM 53.2 °F 43.7 °F 70% 30.08 in 10.0 mi NNE 10.4 mph 21.9 mph N/A Rain Heavy Rain
3:15 AM 52.7 °F 43.0 °F 70% 30.08 in 7.0 mi NNE 13.8 mph 21.9 mph N/A Rain Heavy Rain
3:35 AM 52.7 °F 42.8 °F 69% 30.09 in 10.0 mi NNE 13.8 mph 23.0 mph N/A Rain Heavy Rain
3:55 AM 52.3 °F 42.8 °F 70% 30.10 in 10.0 mi North 10.4 mph 18.4 mph N/A Rain Light Rain
4:15 AM 50.2 °F 43.5 °F 78% 30.11 in 7.0 mi NNE 17.3 mph 24.2 mph 0.01 in Rain Light Rain
4:35 AM 49.5 °F 43.9 °F 81% 30.12 in 10.0 mi North 11.5 mph 19.6 mph 0.02 in Rain Heavy Rain
4:55 AM 49.1 °F 43.7 °F 82% 30.12 in 7.0 mi North 12.7 mph 23.0 mph 0.02 in Rain Heavy Rain
5:15 AM 48.7 °F 43.7 °F 83% 30.14 in 10.0 mi North 11.5 mph 18.4 mph N/A Rain Heavy Rain
5:35 AM 48.4 °F 43.7 °F 84% 30.14 in 7.0 mi North 10.4 mph 19.6 mph N/A Rain Heavy Rain
5:55 AM 48.4 °F 41.9 °F 78% 30.14 in 7.0 mi North 13.8 mph 21.9 mph N/A Rain Heavy Rain
6:15 AM 48.4 °F 41.0 °F 76% 30.13 in 7.0 mi NNE 11.5 mph 18.4 mph N/A Rain Heavy Rain
6:35 AM 48.4 °F 41.4 °F 77% 30.14 in 7.0 mi North 9.2 mph - N/A Rain Heavy Rain
6:55 AM 49.1 °F 41.5 °F 75% 30.16 in 7.0 mi North 8.1 mph - N/A Rain Heavy Rain
7:15 AM 49.1 °F 40.8 °F 73% 30.18 in 5.0 mi North 11.5 mph 20.7 mph N/A Rain , Thunderstorm Heavy Thunderstorms and Rain
7:35 AM 49.5 °F 40.6 °F 72% 30.19 in 5.0 mi North 10.4 mph 16.1 mph N/A Rain Heavy Rain
7:55 AM 49.6 °F 39.9 °F 69% 30.20 in 5.0 mi North 11.5 mph 16.1 mph N/A Rain Heavy Rain
8:15 AM 49.8 °F 39.6 °F 68% 30.21 in 5.0 mi North 8.1 mph 16.1 mph N/A Rain Heavy Rain
8:35 AM 50.0 °F 39.4 °F 67% 30.21 in 7.0 mi North 12.7 mph 19.6 mph N/A Rain Heavy Rain
8:55 AM 50.0 °F 39.0 °F 66% 30.20 in 7.0 mi North 9.2 mph 19.6 mph N/A Rain Heavy Rain
9:15 AM 50.4 °F 38.5 °F 64% 30.21 in 7.0 mi North 15.0 mph 19.6 mph N/A Rain Heavy Rain
9:35 AM 51.1 °F 38.7 °F 63% 30.21 in 7.0 mi North 10.4 mph 17.3 mph N/A Rain , Thunderstorm Heavy Thunderstorms and Rain
9:55 AM 51.3 °F 38.1 °F 61% 30.22 in 10.0 mi NNE 12.7 mph 17.3 mph N/A Rain Heavy Rain
10:15 AM 51.8 °F 38.3 °F 60% 30.21 in 7.0 mi North 10.4 mph 17.3 mph N/A Rain Heavy Rain
10:35 AM 52.7 °F 37.9 °F 57% 30.21 in 5.0 mi North 11.5 mph 16.1 mph N/A Rain Heavy Rain
10:55 AM 53.1 °F 36.9 °F 54% 30.21 in 7.0 mi North 10.4 mph 21.9 mph N/A Rain Heavy Rain
11:15 AM 53.6 °F 37.0 °F 53% 30.22 in 7.0 mi North 13.8 mph 20.7 mph N/A Rain Heavy Rain
11:35 AM 52.7 °F 36.1 °F 53% 30.23 in 7.0 mi North 12.7 mph 20.7 mph N/A Rain Heavy Rain
11:55 AM 53.6 °F 36.7 °F 53% 30.23 in 7.0 mi North 12.7 mph 17.3 mph N/A Rain Heavy Rain
12:15 PM 54.1 °F 36.1 °F 51% 30.23 in 7.0 mi North 10.4 mph 19.6 mph N/A Rain Heavy Rain
12:35 PM 55.9 °F 36.3 °F 48% 30.23 in 7.0 mi North 13.8 mph 18.4 mph N/A Rain Heavy Rain
12:55 PM 55.9 °F 36.1 °F 47% 30.23 in 7.0 mi North 9.2 mph 16.1 mph N/A Rain Heavy Rain
1:15 PM 57.4 °F 36.1 °F 45% 30.22 in 10.0 mi North 11.5 mph 19.6 mph N/A Rain Heavy Rain
1:55 PM 59.9 °F 36.3 °F 41% 30.21 in 10.0 mi North 6.9 mph 16.1 mph N/A Rain Heavy Rain
2:15 PM 61.0 °F 36.0 °F 39% 30.20 in 7.0 mi North 9.2 mph 16.1 mph N/A Rain Heavy Rain
2:35 PM 63.0 °F 36.3 °F 37% 30.19 in - NNE 10.4 mph - N/A   Unknown
2:55 PM 63.7 °F 36.0 °F 36% 30.19 in 7.0 mi NNE 10.4 mph - N/A Rain Heavy Rain
3:15 PM 63.7 °F 36.3 °F 36% 30.19 in 5.0 mi NNE 11.5 mph - N/A Rain Heavy Rain
3:35 PM 62.8 °F 35.4 °F 36% 30.19 in 10.0 mi North 8.1 mph 16.1 mph N/A Rain Heavy Rain
3:55 PM 64.2 °F 36.0 °F 35% 30.18 in 7.0 mi North 11.5 mph 17.3 mph N/A Rain Heavy Rain
4:15 PM 64.4 °F 36.1 °F 35% 30.17 in 10.0 mi NNE 9.2 mph 19.6 mph N/A Rain Heavy Rain
4:35 PM 64.6 °F 36.0 °F 35% 30.17 in 10.0 mi North 11.5 mph 17.3 mph N/A Rain Heavy Rain
4:55 PM 63.9 °F 35.8 °F 35% 30.16 in 7.0 mi NNE 9.2 mph - N/A Rain Heavy Rain
5:15 PM 63.5 °F 35.8 °F 36% 30.17 in 7.0 mi NNE 8.1 mph - N/A Rain Heavy Rain
5:55 PM 63.5 °F 35.6 °F 35% 30.16 in 10.0 mi NNE 8.1 mph - N/A Rain Heavy Rain
6:15 PM 63.5 °F 35.6 °F 35% 30.16 in 10.0 mi NNE 8.1 mph - N/A Rain Heavy Rain
6:35 PM 63.5 °F 36.0 °F 36% 30.16 in 10.0 mi NNE 8.1 mph - N/A Rain Heavy Rain
6:55 PM 63.3 °F 35.8 °F 36% 30.16 in 10.0 mi NNE 9.2 mph - N/A Rain Heavy Rain
7:15 PM 63.1 °F 35.6 °F 36% 30.16 in 7.0 mi NNE 6.9 mph - N/A Rain Heavy Rain
7:35 PM 62.8 °F 35.6 °F 36% 30.16 in 10.0 mi NNE 9.2 mph - N/A Rain Heavy Rain
7:55 PM 62.6 °F 35.6 °F 37% 30.17 in 10.0 mi NNE 6.9 mph - N/A Rain Heavy Rain
8:15 PM 62.2 °F 35.6 °F 37% 30.18 in 7.0 mi NNE 6.9 mph - N/A Rain Heavy Rain
8:35 PM 62.2 °F 36.3 °F 38% 30.19 in 7.0 mi NNE 5.8 mph - N/A Rain Heavy Rain
8:55 PM 62.1 °F 36.5 °F 39% 30.19 in 5.0 mi NNE 8.1 mph - N/A Rain Heavy Rain
10:15 PM 61.7 °F 37.0 °F 40% 30.23 in 7.0 mi NNE 5.8 mph - N/A Rain Heavy Rain
10:35 PM 61.5 °F 37.0 °F 40% 30.24 in 10.0 mi NNE 4.6 mph - N/A Rain Heavy Rain
10:55 PM 61.2 °F 37.6 °F 42% 30.24 in 7.0 mi NNE 9.2 mph - N/A Rain Heavy Rain
11:15 PM 61.2 °F 37.6 °F 42% 30.24 in 10.0 mi NNE 6.9 mph - N/A Rain Heavy Rain
11:35 PM 61.2 °F 37.8 °F 42% 30.25 in 10.0 mi NNE 8.1 mph - N/A Rain Heavy Rain
11:55 PM 61.0 °F 38.1 °F 43% 30.24 in 7.0 mi NNE 8.1 mph - N/A Rain Heavy Rain